Location: Shenandoah County Park
(38.9356°N, 78.4524°W)
Time: 12:44:04
(UTC-04:00)

Envisat - Pass Details

Date: 28 May 2024
Orbit: 762 x 764 km, 98.3° (Epoch: 14 June)

Event Time Altitude Azimuth Distance (km) Brightness Sun altitude
Rises 04:25:21 0° 14° (NNE) 3,233 7.3 -14.4°
Reaches altitude 10° 04:27:40 10° 16° (NNE) 2,303 6.4 -14.0°
Maximum altitude 04:32:45 78° 103° (ESE) 783 3.1 -13.3°
Drops below altitude 10° 04:37:48 10° 189° (S) 2,287 5.0 -12.6°
Enters shadow 04:37:51 10° 189° (S) 2,310 5.0 -12.6°
